Weather History for KCWC - September, 2013

Change the Weather History Date:

Thursday, September 19, 2013

  Actual Average (KSPS) Record (KSPS)
Temperature  
Mean Temperature 79 °F 74 °F  
Max Temperature 85 °F 87 °F 100 °F (1980)
Min Temperature 73 °F 62 °F 48 °F (1981)
Degree Days  
Heating Degree Days 0 1  
Month to date heating degree days 1  
Since 1 July heating degree days 1  
Cooling Degree Days 14 10  
Month to date cooling degree days 247  
Year to date cooling degree days 2192  
Growing Degree Days 29 (Base 50)    
Moisture  
Dew Point 63 °F    
Average Humidity 59    
Maximum Humidity 73    
Minimum Humidity 45    
Precipitation  
Precipitation 0.00 in 0.09 in 3.60 in (1904)
Month to date precipitation 1.86  
Year to date precipitation 21.59  
Sea Level Pressure  
Sea Level Pressure 29.94 in    
Wind  
Wind Speed 7 mph (South)    
Max Wind Speed 15 mph    
Max Gust Speed 21 mph    
Visibility 10 miles    
Events Rain    
T = Trace of Precipitation, MM = Missing Value Source: NWS Daily Summary

Daily Weather History Graph

Daily Weather History Graph

Search for Another Location

Airport or City:

Trip Planner

Search our weather history database for the weather conditions in past years. The results will help you decide how hot, cold, wet, or windy it might be!

Date:

Astronomy

Sep. 19, 2013 Rise Set
Actual Time 7:20 AM CDT 7:34 PM CDT
Civil Twilight 6:55 AM CDT 7:59 PM CDT
Nautical Twilight 6:26 AM CDT 8:28 PM CDT
Astronomical Twilight 5:56 AM CDT 8:58 PM CDT
Moon 7:37 PM CDT (9/19) 7:28 AM CDT (9/19)
Length of Visible Light 13h 04m
Length of Day
12h 14m
Full, 100% of the Moon is Illuminated
Sep 19
Full
Sep 26
Last Quarter
Oct 4
New
Oct 11
First Quarter
Oct 18
Full

Hourly Weather History & Observations

Time (CDT) Temp. Heat Index Dew Point Humidity Pressure Visibility Wind Dir Wind Speed Gust Speed Precip Events Conditions
12:15 AM 79.5 °F - 59.0 °F 49% 29.92 in 10.0 mi SSE 8.1 mph - N/A   Clear
12:35 AM 77.9 °F - 59.4 °F 53% 29.92 in 10.0 mi SSE 6.9 mph - N/A   Clear
12:55 AM 77.7 °F - 59.4 °F 53% 29.92 in 10.0 mi SSE 8.1 mph - N/A   Clear
1:15 AM 77.4 °F - 59.5 °F 54% 29.92 in 10.0 mi SSE 9.2 mph - N/A   Clear
1:35 AM 77.7 °F - 59.5 °F 53% 29.92 in 10.0 mi SSE 8.1 mph - N/A   Clear
1:55 AM 76.1 °F - 59.9 °F 57% 29.92 in 10.0 mi SSE 6.9 mph - N/A   Clear
2:15 AM 74.8 °F - 60.1 °F 60% 29.92 in 10.0 mi SSE 6.9 mph - N/A   Clear
2:35 AM 75.0 °F - 60.1 °F 60% 29.91 in 10.0 mi SSE 6.9 mph - N/A   Clear
2:55 AM 74.7 °F - 60.3 °F 61% 29.91 in 10.0 mi SSE 6.9 mph - N/A   Clear
3:15 AM 74.8 °F - 60.8 °F 62% 29.91 in 10.0 mi SSE 8.1 mph - N/A   Clear
3:35 AM 74.5 °F - 60.8 °F 62% 29.91 in 10.0 mi South 6.9 mph - N/A   Clear
3:55 AM 74.3 °F - 60.8 °F 63% 29.91 in 10.0 mi South 8.1 mph - N/A   Clear
4:15 AM 74.1 °F - 60.8 °F 63% 29.91 in 10.0 mi SSE 6.9 mph - N/A   Clear
4:35 AM 74.5 °F - 60.8 °F 62% 29.91 in 10.0 mi SSE 6.9 mph - N/A   Clear
4:55 AM 74.3 °F - 60.8 °F 63% 29.92 in 10.0 mi SSE 6.9 mph - N/A   Clear
5:15 AM 74.8 °F - 60.8 °F 62% 29.92 in 10.0 mi SSE 6.9 mph - N/A   Clear
5:35 AM 74.8 °F - 61.0 °F 62% 29.92 in 10.0 mi SSE 5.8 mph - N/A   Clear
5:55 AM 74.3 °F - 61.0 °F 63% 29.93 in 10.0 mi SSE 5.8 mph - N/A   Clear
6:15 AM 73.8 °F - 61.2 °F 65% 29.93 in 10.0 mi SSE 5.8 mph - N/A   Clear
6:35 AM 73.8 °F - 61.2 °F 65% 29.94 in 10.0 mi SSE 6.9 mph - N/A   Clear
6:55 AM 73.4 °F - 61.2 °F 65% 29.94 in 10.0 mi SSE 6.9 mph - N/A   Clear
7:15 AM 73.4 °F - 61.3 °F 66% 29.95 in 10.0 mi SE 5.8 mph - N/A   Clear
7:35 AM 73.4 °F - 61.7 °F 67% 29.96 in 10.0 mi SSE 6.9 mph - N/A   Clear
7:55 AM 74.3 °F - 62.1 °F 65% 29.96 in 10.0 mi SSE 6.9 mph - N/A   Clear
8:15 AM 74.5 °F - 62.4 °F 66% 29.96 in 10.0 mi SSE 6.9 mph - N/A   Clear
8:35 AM 75.7 °F - 62.8 °F 64% 29.97 in 10.0 mi SSE 6.9 mph - N/A   Clear
8:55 AM 77.5 °F - 63.5 °F 62% 29.97 in 10.0 mi SSE 9.2 mph - N/A   Clear
9:15 AM 80.6 °F 82.0 °F 63.7 °F 56% 29.97 in 10.0 mi SSE 9.2 mph - N/A   Clear
9:35 AM 81.7 °F 83.3 °F 64.4 °F 56% 29.97 in 10.0 mi South 11.5 mph - N/A   Scattered Clouds
9:55 AM 83.1 °F 84.8 °F 64.8 °F 54% 29.98 in 5.0 mi South 10.4 mph - N/A   Haze
10:15 AM 83.3 °F 84.8 °F 64.8 °F 53% 29.99 in 10.0 mi South 11.5 mph - N/A   Mostly Cloudy
10:35 AM 83.5 °F 85.1 °F 64.6 °F 53% 29.99 in 10.0 mi South 10.4 mph - N/A   Overcast
10:55 AM 84.2 °F 85.8 °F 64.6 °F 52% 30.00 in 10.0 mi South 11.5 mph - N/A   Mostly Cloudy
11:15 AM 85.1 °F 86.6 °F 64.8 °F 50% 30.00 in 10.0 mi South 15.0 mph - N/A   Mostly Cloudy
11:35 AM 85.3 °F 86.1 °F 63.0 °F 47% 30.00 in 7.0 mi SSW 15.0 mph 20.7 mph N/A   Mostly Cloudy
12:15 PM 82.4 °F 84.2 °F 65.5 °F 56% 30.00 in 10.0 mi SW 6.9 mph - N/A   Light Drizzle
12:35 PM 84.2 °F 85.8 °F 64.9 °F 52% 29.99 in 10.0 mi SW 9.2 mph - N/A   Clear
12:55 PM 84.4 °F 85.0 °F 62.2 °F 47% 29.99 in 10.0 mi SW 13.8 mph 19.6 mph N/A   Clear
1:15 PM 84.7 °F 85.0 °F 61.2 °F 45% 29.99 in 10.0 mi SW 9.2 mph - N/A   Clear
1:35 PM 84.9 °F 85.9 °F 63.0 °F 48% 29.98 in 10.0 mi SSW 5.8 mph - N/A   Clear
1:55 PM 85.3 °F 86.1 °F 62.8 °F 47% 29.98 in 10.0 mi SW 11.5 mph 18.4 mph N/A   Clear
2:15 PM 85.5 °F 86.3 °F 63.3 °F 47% 29.97 in 10.0 mi South 11.5 mph 17.3 mph N/A   Clear
2:35 PM 84.7 °F 85.6 °F 62.8 °F 48% 29.97 in 10.0 mi SSW 11.5 mph 16.1 mph N/A   Clear
2:55 PM 83.8 °F 85.1 °F 64.2 °F 51% 29.96 in 10.0 mi SW 6.9 mph - N/A   Clear
3:15 PM 84.0 °F 85.4 °F 64.0 °F 51% 29.95 in 10.0 mi SSW 9.2 mph - N/A   Clear
3:35 PM 83.8 °F 85.3 °F 64.6 °F 52% 29.95 in 10.0 mi SW 6.9 mph - N/A   Clear
3:55 PM 83.8 °F 85.6 °F 64.9 °F 53% 29.95 in 10.0 mi SSW 8.1 mph - N/A   Scattered Clouds
4:15 PM 83.7 °F 85.5 °F 65.3 °F 54% 29.94 in 10.0 mi SW 4.6 mph - N/A   Scattered Clouds
4:35 PM 83.3 °F 84.8 °F 64.4 °F 53% 29.94 in 10.0 mi WSW 5.8 mph - N/A   Scattered Clouds
4:55 PM 82.9 °F 84.4 °F 64.4 °F 53% 29.93 in 10.0 mi WSW 4.6 mph - N/A   Scattered Clouds
5:15 PM 82.9 °F 84.8 °F 65.5 °F 55% 29.93 in 10.0 mi WSW 5.8 mph - N/A   Clear
5:35 PM 82.0 °F 84.5 °F 67.1 °F 60% 29.92 in 10.0 mi WSW 5.8 mph - N/A   Clear
5:55 PM 81.5 °F 84.2 °F 67.8 °F 63% 29.93 in 10.0 mi West 5.8 mph - N/A   Scattered Clouds
6:15 PM 81.1 °F 83.4 °F 66.4 °F 61% 29.92 in 10.0 mi WSW 4.6 mph - N/A   Scattered Clouds
6:35 PM 80.6 °F 82.4 °F 65.1 °F 59% 29.92 in 10.0 mi SSW 3.5 mph - N/A Rain Light Rain
6:55 PM 79.7 °F - 67.8 °F 67% 29.92 in 10.0 mi SSW 6.9 mph - N/A   Light Drizzle
7:15 PM 78.8 °F - 68.5 °F 71% 29.91 in 10.0 mi SSE 4.6 mph - N/A   Light Drizzle
7:35 PM 78.3 °F - 68.9 °F 73% 29.90 in 10.0 mi SSE 4.6 mph - N/A Rain Light Rain
7:55 PM 77.7 °F - 68.2 °F 72% 29.90 in 10.0 mi SSE 4.6 mph - N/A   Scattered Clouds
8:15 PM 77.7 °F - 67.3 °F 70% 29.90 in 10.0 mi SSE 4.6 mph - N/A   Clear
8:35 PM 77.4 °F - 66.6 °F 69% 29.91 in 10.0 mi South 4.6 mph - N/A   Clear
8:55 PM 76.6 °F - 65.7 °F 69% 29.91 in 10.0 mi SSE 8.1 mph - N/A   Clear
9:15 PM 76.5 °F - 65.8 °F 70% 29.92 in 10.0 mi SSE 4.6 mph - N/A   Mostly Cloudy
9:35 PM 76.8 °F - 65.3 °F 67% 29.93 in 10.0 mi SSE 3.5 mph - N/A   Mostly Cloudy
9:55 PM 76.5 °F - 64.4 °F 66% 29.95 in 10.0 mi Calm Calm - N/A   Mostly Cloudy
10:15 PM 77.0 °F - 64.0 °F 64% 29.95 in 10.0 mi Calm Calm - N/A   Overcast
10:35 PM 77.5 °F - 63.9 °F 63% 29.96 in 10.0 mi Calm Calm - N/A   Overcast
10:55 PM 77.4 °F - 63.7 °F 63% 29.97 in 10.0 mi Calm Calm - N/A   Overcast
11:15 PM 77.2 °F - 63.9 °F 63% 29.96 in 10.0 mi Calm Calm - N/A   Mostly Cloudy
11:35 PM 77.0 °F - 64.0 °F 64% 29.97 in 10.0 mi ENE 3.5 mph - N/A   Scattered Clouds
11:55 PM 76.1 °F - 64.6 °F 67% 29.97 in 10.0 mi NE 4.6 mph - N/A   Overcast